When you browse on this site, cookies collect data to enhance your experience and personalize the content and advertising you see.
Visit our Privacy Policy to learn more. By continuing to use the site, you agree to this use of cookies and data.
  • en France
  • Liste des pays
  • À 7 jours
  • Température de l'eau
  • Carte météo
  • Widgets météo
  • user-avatar
    Se connecter

    Météo par heure à Benito Juárez

    Ce jour, 15 Septembre, Dimanche

    Heure Température Précipitation Vent Pression Humidité
    00:00 +19°C° 0.2 mm 0 m/s 673 mmHg 96%
    01:00 +20°C° 0.2 mm 1 m/s 673 mmHg 95%
    02:00 +20°C° 0.2 mm 1 m/s 673 mmHg 94%
    03:00 +20°C° 0.1 mm 1 m/s 672 mmHg 93%
    04:00 +19°C° 0.1 mm 1 m/s 672 mmHg 92%
    05:00 +19°C° 0.1 mm 1 m/s 672 mmHg 91%
    06:00 +21°C° 0 mm 1 m/s 673 mmHg 88%
    07:00 +22°C° 0 mm 1 m/s 673 mmHg 85%
    08:00 +21°C° 0 mm 0 m/s 674 mmHg 82%
    09:00 +25°C° 0 mm 1 m/s 674 mmHg 76%
    10:00 +27°C° 0 mm 1 m/s 674 mmHg 71%
    11:00 +28°C° 0 mm 1 m/s 674 mmHg 65%
    12:00 +28°C° 0.2 mm 1 m/s 673 mmHg 68%
    13:00 +28°C° 0.2 mm 1 m/s 672 mmHg 71%
    14:00 +28°C° 0.2 mm 1 m/s 671 mmHg 75%
    15:00 +27°C° 0.6 mm 1 m/s 671 mmHg 80%
    16:00 +26°C° 0.6 mm 1 m/s 670 mmHg 85%
    17:00 +23°C° 0.6 mm 0 m/s 670 mmHg 90%
    18:00 +24°C° 1.3 mm 1 m/s 671 mmHg 90%
    19:00 +23°C° 1.3 mm 1 m/s 671 mmHg 90%
    20:00 +22°C° 1.3 mm 1 m/s 672 mmHg 90%
    21:00 +22°C° 0.2 mm 1 m/s 672 mmHg 90%
    22:00 +20°C° 0.2 mm 2 m/s 672 mmHg 90%
    23:00 +20°C° 0.2 mm 2 m/s 673 mmHg 89%

    Demain, 16 Septembre, Lundi

    Heure Température Précipitation Vent Pression Humidité
    00:00 +20°C° 0.2 mm 2 m/s 672 mmHg 90%
    01:00 +19°C° 0.2 mm 2 m/s 672 mmHg 90%
    02:00 +19°C° 0.2 mm 2 m/s 672 mmHg 91%
    03:00 +19°C° 0 mm 2 m/s 672 mmHg 90%
    04:00 +19°C° 0 mm 2 m/s 672 mmHg 89%
    05:00 +19°C° 0 mm 2 m/s 672 mmHg 88%
    06:00 +22°C° 0 mm 1 m/s 673 mmHg 84%
    07:00 +24°C° 0 mm 1 m/s 673 mmHg 80%
    08:00 +23°C° 0 mm 0 m/s 674 mmHg 76%
    09:00 +27°C° 0.1 mm 1 m/s 674 mmHg 73%
    10:00 +28°C° 0.1 mm 1 m/s 673 mmHg 71%
    11:00 +29°C° 0.1 mm 2 m/s 673 mmHg 69%
    12:00 +29°C° 0.4 mm 1 m/s 672 mmHg 70%
    13:00 +29°C° 0.4 mm 1 m/s 671 mmHg 72%
    14:00 +29°C° 0.4 mm 1 m/s 670 mmHg 73%
    15:00 +28°C° 1.2 mm 1 m/s 670 mmHg 79%
    16:00 +27°C° 1.2 mm 1 m/s 670 mmHg 84%
    17:00 +24°C° 1.2 mm 0 m/s 670 mmHg 90%
    18:00 +25°C° 1.1 mm 1 m/s 670 mmHg 91%
    19:00 +23°C° 1.1 mm 1 m/s 671 mmHg 91%
    20:00 +22°C° 1.1 mm 1 m/s 672 mmHg 92%
    21:00 +21°C° 0.8 mm 2 m/s 672 mmHg 92%
    22:00 +21°C° 0.8 mm 2 m/s 672 mmHg 92%
    23:00 +20°C° 0.8 mm 2 m/s 672 mmHg 92%

    Après-demain, 17 Septembre, Mardi

    Heure Température Précipitation Vent Pression Humidité
    00:00 +20°C° 0.1 mm 2 m/s 672 mmHg 91%
    01:00 +21°C° 0.1 mm 1 m/s 672 mmHg 91%
    02:00 +21°C° 0.1 mm 1 m/s 672 mmHg 90%
    03:00 +21°C° 0 mm 1 m/s 672 mmHg 89%
    04:00 +20°C° 0 mm 1 m/s 672 mmHg 89%
    05:00 +20°C° 0 mm 1 m/s 672 mmHg 88%
    06:00 +22°C° 0 mm 1 m/s 672 mmHg 84%
    07:00 +22°C° 0 mm 0 m/s 673 mmHg 80%
    08:00 +24°C° 0 mm 0 m/s 674 mmHg 76%
    09:00 +25°C° 0.2 mm 0 m/s 674 mmHg 75%
    10:00 +28°C° 0.2 mm 1 m/s 673 mmHg 73%
    11:00 +29°C° 0.2 mm 2 m/s 673 mmHg 72%
    12:00 +29°C° 0.8 mm 1 m/s 672 mmHg 73%
    13:00 +29°C° 0.8 mm 1 m/s 672 mmHg 74%
    14:00 +29°C° 0.8 mm 1 m/s 671 mmHg 75%
    15:00 +28°C° 0.9 mm 1 m/s 671 mmHg 80%
    16:00 +26°C° 0.9 mm 1 m/s 671 mmHg 85%
    17:00 +23°C° 0.9 mm 0 m/s 671 mmHg 90%
    18:00 +24°C° 2.3 mm 1 m/s 671 mmHg 92%
    19:00 +23°C° 2.3 mm 1 m/s 672 mmHg 93%
    20:00 +22°C° 2.3 mm 1 m/s 672 mmHg 94%
    21:00 +22°C° 0.7 mm 1 m/s 672 mmHg 93%
    22:00 +21°C° 0.7 mm 1 m/s 672 mmHg 93%
    23:00 +21°C° 0.7 mm 1 m/s 673 mmHg 93%

    18 Septembre, Mercredi

    Heure Température Précipitation Vent Pression Humidité
    00:00 +21°C° 0 mm 1 m/s 672 mmHg 92%
    01:00 +21°C° 0 mm 1 m/s 672 mmHg 90%
    02:00 +21°C° 0 mm 1 m/s 672 mmHg 89%
    03:00 +21°C° 0 mm 1 m/s 672 mmHg 89%
    04:00 +20°C° 0 mm 1 m/s 672 mmHg 89%
    05:00 +20°C° 0 mm 1 m/s 672 mmHg 89%
    06:00 +22°C° 0 mm 1 m/s 672 mmHg 85%
    07:00 +22°C° 0 mm 0 m/s 673 mmHg 81%
    08:00 +23°C° 0 mm 0 m/s 674 mmHg 77%
    09:00 +26°C° 0.1 mm 1 m/s 673 mmHg 75%
    10:00 +27°C° 0.1 mm 1 m/s 673 mmHg 73%
    11:00 +28°C° 0.1 mm 2 m/s 673 mmHg 71%
    12:00 +28°C° 0.5 mm 2 m/s 672 mmHg 73%
    13:00 +28°C° 0.5 mm 1 m/s 671 mmHg 74%
    14:00 +28°C° 0.5 mm 1 m/s 671 mmHg 76%
    15:00 +27°C° 0.7 mm 1 m/s 671 mmHg 81%
    16:00 +26°C° 0.7 mm 1 m/s 671 mmHg 86%
    17:00 +23°C° 0.7 mm 0 m/s 671 mmHg 91%
    18:00 +22°C° 1.7 mm 0 m/s 671 mmHg 92%
    19:00 +22°C° 1.7 mm 0 m/s 671 mmHg 93%
    20:00 +21°C° 1.7 mm 0 m/s 672 mmHg 95%
    21:00 +20°C° 1 mm 0 m/s 672 mmHg 95%
    22:00 +20°C° 1 mm 0 m/s 672 mmHg 96%
    23:00 +20°C° 1 mm 0 m/s 672 mmHg 96%

    19 Septembre, Jeudi

    Heure Température Précipitation Vent Pression Humidité
    00:00 +20°C° 0.1 mm 0 m/s 672 mmHg 96%
    01:00 +19°C° 0.1 mm 0 m/s 671 mmHg 95%
    02:00 +19°C° 0.1 mm 0 m/s 671 mmHg 95%
    03:00 +21°C° 0 mm 1 m/s 671 mmHg 94%
    04:00 +21°C° 0 mm 1 m/s 671 mmHg 94%
    05:00 +21°C° 0 mm 1 m/s 671 mmHg 93%
    06:00 +22°C° 0 mm 1 m/s 672 mmHg 92%
    07:00 +21°C° 0 mm 0 m/s 672 mmHg 91%
    08:00 +22°C° 0 mm 0 m/s 672 mmHg 89%
    09:00 +25°C° 0.5 mm 1 m/s 672 mmHg 86%
    10:00 +26°C° 0.5 mm 1 m/s 672 mmHg 83%
    11:00 +28°C° 0.5 mm 1 m/s 672 mmHg 80%
    12:00 +28°C° 1.1 mm 1 m/s 671 mmHg 80%
    13:00 +28°C° 1.1 mm 1 m/s 670 mmHg 80%
    14:00 +28°C° 1.1 mm 1 m/s 670 mmHg 80%
    15:00 +27°C° 0.9 mm 1 m/s 670 mmHg 84%
    16:00 +24°C° 0.9 mm 0 m/s 670 mmHg 88%
    17:00 +23°C° 0.9 mm 0 m/s 669 mmHg 93%
    18:00 +22°C° 2 mm 0 m/s 670 mmHg 93%
    19:00 +23°C° 2 mm 1 m/s 671 mmHg 93%
    20:00 +22°C° 2 mm 1 m/s 671 mmHg 94%
    21:00 +22°C° 0.3 mm 1 m/s 671 mmHg 93%
    22:00 +22°C° 0.3 mm 1 m/s 671 mmHg 93%
    23:00 +21°C° 0.3 mm 1 m/s 672 mmHg 92%

    20 Septembre, Vendredi

    Heure Température Précipitation Vent Pression Humidité
    00:00 +21°C° 0 mm 1 m/s 671 mmHg 92%
    01:00 +19°C° 0 mm 2 m/s 671 mmHg 91%
    02:00 +19°C° 0 mm 2 m/s 670 mmHg 91%
    03:00 +18°C° 0 mm 2 m/s 670 mmHg 90%
    04:00 +18°C° 0 mm 2 m/s 670 mmHg 89%
    05:00 +18°C° 0 mm 2 m/s 671 mmHg 89%
    06:00 +21°C° 0 mm 1 m/s 671 mmHg 84%
    07:00 +23°C° 0 mm 1 m/s 672 mmHg 80%
    08:00 +23°C° 0 mm 0 m/s 673 mmHg 76%
    09:00 +26°C° 0 mm 1 m/s 673 mmHg 73%
    10:00 +27°C° 0 mm 1 m/s 673 mmHg 69%
    11:00 +29°C° 0 mm 1 m/s 672 mmHg 65%
    12:00 +29°C° 0.5 mm 1 m/s 672 mmHg 67%
    13:00 +29°C° 0.5 mm 1 m/s 671 mmHg 70%
    14:00 +29°C° 0.5 mm 1 m/s 670 mmHg 72%
    15:00 +28°C° 0.6 mm 1 m/s 670 mmHg 77%
    16:00 +27°C° 0.6 mm 1 m/s 670 mmHg 83%
    17:00 +24°C° 0.6 mm 0 m/s 670 mmHg 88%
    18:00 +24°C° 1 mm 1 m/s 671 mmHg 89%
    19:00 +23°C° 1 mm 1 m/s 671 mmHg 91%
    20:00 +22°C° 1 mm 1 m/s 671 mmHg 92%
    21:00 +20°C° 0.3 mm 2 m/s 672 mmHg 91%
    22:00 +20°C° 0.3 mm 2 m/s 672 mmHg 91%
    23:00 +19°C° 0.3 mm 2 m/s 672 mmHg 90%
    Voir plus